Location: Mexico
(19.4000°N, 99.1500°W)
Time: 18:07:27
(UTC-06:00)

ISS - Pass Details

Date: 21 February 2020
Orbit: 415 x 422 km, 51.6° (Epoch: 27 February)

Event Time Altitude Azimuth Distance (km) Brightness Sun altitude
Exits shadow 05:03:27 15° 59° (ENE) 1,206 -0.8 -28.6°
Drops below altitude 10° 05:04:12 10° 54° (NE) 1,491 -0.4 -28.4°
Sets 05:06:21 0° 47° (NE) 2,356 0.7 -27.9°
